STARLINK-35712, 66215

Orbit data source: Space-Track

STARLINK-35712, 66215 is a payload satellite owned by SpaceX/Seattle (US) in LEO that was launched on Tue, 28 Oct 2025 UTC via an FALCON 9 launch vehicle from the Air Force Western Test Range (AFWTR). Payload-class satellites include a variety of spacecraft equipped with specific instruments for various scientific and technological missions. These include communications satellites like Starlink; space stations such as the ISS; scientific satellites like the Hubble; Earth observation satellites from companies like Planet Labs, Umbra, and HawkEye 360; GPS; miniature CubeSats for education and research; and military/defense satellites.

Loading next visibility...
Identifier
66215, 2025-244K
Orbit
LEO
Country
Flag of USUS
Related business
Manufacturer
SpaceX/Seattle
Mission
Operational Commercial Communications
Bus & Motor
STARLINK V2MO, Unknown motor
Mass
575 kg wet, ~530 kg dry
Launch date (UTC)
2025-10-28 (8 months ago)
Launch vehicle
FALCON 9
Launch site
Air Force Western Test Range (AFWTR)
Object type
Payload
Rocket body
Debris
Shape & HBR
Box + 2 Pan, 17.7 m
Radar Cross Section
36.964 m², Large (>1 m²)

Expand to show TLE details & history
Last TLE update: 12 hours ago

TLE from 12 hours ago
0 STARLINK-35712
1 66215U 25244K   26171.33336806  .00043807  00000-0  13017-2 0  9992
2 66215  53.1607 112.8174 0000741  66.8119 137.3483 15.34362460  5885
Epoch: 2026-06-20T08:00Z
TLE epoch observation values (Epoch: 2026-06-20T08:00:03.000Z)
Latitude
-19.30497°
Longitude
-80.61669°
Altitude
468.522 km
Speed
7.632 km/s
True Right ascension
20h 31m 46s
True Declination
-19° 11' 36"
Sunlit
Object was in full shadow at epoch
Visualization orbit readout
Latitude
Unknown
Longitude
Unknown
Altitude
Unknown
Speed
Unknown
Apparent Right ascension
Unknown
Apparent Declination
Unknown
Sunlit
N/A
Visualization observer readout
Local Sidereal Time
07:18:25
Azimuth
Unknown
Elevation
Unknown
Doppler factor
Unknown
Orbital elements
Apogee altitude
463.579 km
Perigee altitude
462.565 km
Semi-major axis
6,841.209 km
Eccentricity
0.00007
Inclination
53.1607°
RAAN
112.8174°
Arg. of periapsis
66.8119°
True anomaly
137.35405°
Mean anomaly
137.3483°
Eccentric anomaly
137.35118°
Mean motion
3.83569 °/min
Orbital period
93.86 mins
BSTAR
0.0013017
Loading maneuver chart data...
Computing Atmospheric mass density...
Loading historical data...
Loading historical data...
Loading historical data...
Loading historical data...
Loading historical data...
Loading historical data...
Loading historical data...

Documentation

Showing up to 5 results
|